Location: Stillwell
(40.4602°N, 82.0928°W)
Time: 12:56:34
(UTC-04:00)

Cosmos 2322 - Pass Details

Date: 25 May 2018
Orbit: 842 x 853 km, 71.0° (Epoch: 15 October)

Event Time Altitude Azimuth Distance (km) Brightness Sun altitude
Rises 22:04:45 0° 343° (NNW) 3,432 8.0 -12.8°
Reaches altitude 10° 22:07:27 10° 353° (N) 2,492 6.9 -13.2°
Maximum altitude 22:12:40 35° 58° (ENE) 1,349 4.6 -13.9°
Enters shadow 22:16:09 19° 113° (ESE) 1,944 5.0 -14.3°
